Time,TemperatureF,DewpointF,PressureIn,WindDirection,WindDirectionDegrees,WindSpeedMPH,WindSpeedGustMPH,Humidity,HourlyPrecipIn,Conditions,Clouds,dailyrainin,SoftwareType,DateUTC
2013-04-22 00:01:00,56.3,41.3,30.27,ENE,70,3.5,3.5,57,0.00,FEW,,0.00,WeatherDisplay:10.37,2013-04-22 04:01:00,
2013-04-22 00:05:00,56.2,41.2,30.27,ENE,68,3.5,3.5,57,0.00,FEW,,0.00,WeatherDisplay:10.37,2013-04-22 04:05:00,
2013-04-22 00:10:00,56.2,41.2,30.27,East,80,3.5,3.5,57,0.00,FEW,,0.00,WeatherDisplay:10.37,2013-04-22 04:10:00,
2013-04-22 00:15:00,56.0,41.0,30.27,ENE,65,3.5,3.5,57,0.00,FEW,,0.00,WeatherDisplay:10.37,2013-04-22 04:15:00,
2013-04-22 00:20:00,55.9,41.3,30.27,ESE,109,3.5,3.5,58,0.00,FEW,,0.00,WeatherDisplay:10.37,2013-04-22 04:20:00,
2013-04-22 00:25:00,55.8,41.2,30.27,NE,52,3.5,3.5,58,0.00,CLR,,0.00,WeatherDisplay:10.37,2013-04-22 04:25:00,
2013-04-22 00:30:00,55.7,41.1,30.27,NE,53,2.3,2.3,58,0.00,CLR,,0.00,WeatherDisplay:10.37,2013-04-22 04:30:00,
2013-04-22 00:35:00,55.6,41.5,30.27,ENE,73,3.5,3.5,59,0.00,CLR,,0.00,WeatherDisplay:10.37,2013-04-22 04:35:00,
2013-04-22 00:40:00,55.5,41.0,30.27,ENE,61,3.5,3.5,58,0.00,CLR,,0.00,WeatherDisplay:10.37,2013-04-22 04:40:00,
2013-04-22 00:45:00,55.4,41.3,30.27,ENE,63,3.5,3.5,59,0.00,CLR,,0.00,WeatherDisplay:10.37,2013-04-22 04:45:00,
2013-04-22 00:50:00,55.2,40.7,30.26,ENE,67,3.5,3.5,58,0.00,CLR,,0.00,WeatherDisplay:10.37,2013-04-22 04:50:00,
2013-04-22 00:55:00,55.2,40.7,30.26,NE,54,3.5,3.5,58,0.00,CLR,,0.00,WeatherDisplay:10.37,2013-04-22 04:55:00,
2013-04-22 01:00:00,55.2,40.7,30.26,East,92,3.5,3.5,58,0.00,CLR,,0.00,WeatherDisplay:10.37,2013-04-22 05:00:00,
2013-04-22 01:05:00,55.1,41.0,30.26,ENE,78,4.6,4.6,59,0.00,CLR,,0.00,WeatherDisplay:10.37,2013-04-22 05:05:00,
2013-04-22 01:10:00,55.1,41.0,30.26,ENE,78,3.5,3.5,59,0.00,CLR,,0.00,WeatherDisplay:10.37,2013-04-22 05:10:00,
2013-04-22 01:15:00,55.0,40.9,30.26,ENE,73,3.5,3.5,59,0.00,CLR,,0.00,WeatherDisplay:10.37,2013-04-22 05:15:00,
2013-04-22 01:20:00,54.8,40.7,30.26,ENE,71,3.5,3.5,59,0.00,CLR,,0.00,WeatherDisplay:10.37,2013-04-22 05:20:00,
2013-04-22 01:25:00,54.7,40.6,30.26,East,84,3.5,3.5,59,0.00,CLR,,0.00,WeatherDisplay:10.37,2013-04-22 05:25:00,
2013-04-22 01:30:00,54.6,41.4,30.26,East,79,2.3,2.3,61,0.00,CLR,,0.00,WeatherDisplay:10.37,2013-04-22 05:30:00,
2013-04-22 01:35:00,54.4,41.2,30.26,ENE,71,3.5,3.5,61,0.00,CLR,,0.00,WeatherDisplay:10.37,2013-04-22 05:35:00,
2013-04-22 01:40:00,54.4,40.8,30.26,East,101,2.3,2.3,60,0.00,CLR,,0.00,WeatherDisplay:10.37,2013-04-22 05:40:00,
2013-04-22 01:45:00,54.4,40.8,30.25,ENE,76,4.6,4.6,60,0.00,CLR,,0.00,WeatherDisplay:10.37,2013-04-22 05:45:00,
2013-04-22 01:50:00,54.3,41.1,30.25,ENE,71,2.3,2.3,61,0.00,CLR,,0.00,WeatherDisplay:10.37,2013-04-22 05:50:00,
2013-04-22 01:55:00,54.2,40.6,30.25,ENE,57,2.3,2.3,60,0.00,CLR,,0.00,WeatherDisplay:10.37,2013-04-22 05:55:00,
2013-04-22 02:00:00,54.2,41.0,30.25,ENE,65,3.5,3.5,61,0.00,CLR,,0.00,WeatherDisplay:10.37,2013-04-22 06:00:00,
2013-04-22 02:05:00,54.2,41.5,30.25,ENE,60,4.6,4.6,62,0.00,CLR,,0.00,WeatherDisplay:10.37,2013-04-22 06:05:00,
2013-04-22 02:10:00,54.1,40.5,30.25,ENE,64,2.3,2.3,60,0.00,CLR,,0.00,WeatherDisplay:10.37,2013-04-22 06:10:00,
2013-04-22 02:15:00,54.0,40.8,30.25,East,82,3.5,3.5,61,0.00,CLR,,0.00,WeatherDisplay:10.37,2013-04-22 06:15:00,
2013-04-22 02:20:00,53.9,40.8,30.25,ENE,69,5.8,5.8,61,0.00,CLR,,0.00,WeatherDisplay:10.37,2013-04-22 06:20:00,
2013-04-22 02:25:00,53.9,40.8,30.25,NE,48,4.6,4.6,61,0.00,CLR,,0.00,WeatherDisplay:10.37,2013-04-22 06:25:00,
2013-04-22 02:30:00,53.9,40.8,30.25,NE,49,2.3,2.3,61,0.00,CLR,,0.00,WeatherDisplay:10.37,2013-04-22 06:30:00,
2013-04-22 02:35:00,53.7,41.0,30.25,NE,50,3.5,3.5,62,0.00,CLR,,0.00,WeatherDisplay:10.37,2013-04-22 06:35:00,
2013-04-22 02:40:00,53.6,40.9,30.25,ENE,72,3.5,3.5,62,0.00,CLR,,0.00,WeatherDisplay:10.37,2013-04-22 06:40:00,
2013-04-22 02:45:00,53.5,40.8,30.25,ENE,71,4.6,4.6,62,0.00,CLR,,0.00,WeatherDisplay:10.37,2013-04-22 06:45:00,
2013-04-22 02:50:00,53.5,41.2,30.25,ENE,68,2.3,2.3,63,0.00,CLR,,0.00,WeatherDisplay:10.37,2013-04-22 06:50:00,
2013-04-22 02:55:00,53.4,40.7,30.25,ENE,72,3.5,3.5,62,0.00,CLR,,0.00,WeatherDisplay:10.37,2013-04-22 06:55:00,
2013-04-22 03:00:00,53.3,41.0,30.24,ENE,74,2.3,2.3,63,0.00,CLR,,0.00,WeatherDisplay:10.37,2013-04-22 07:00:00,
2013-04-22 03:05:00,53.2,40.9,30.24,ENE,74,3.5,3.5,63,0.00,CLR,,0.00,WeatherDisplay:10.37,2013-04-22 07:05:00,
2013-04-22 03:10:00,53.1,41.2,30.24,ENE,76,3.5,3.5,64,0.00,CLR,,0.00,WeatherDisplay:10.37,2013-04-22 07:10:00,
2013-04-22 03:15:00,52.9,41.0,30.24,ENE,77,3.5,3.5,64,0.00,CLR,,0.00,WeatherDisplay:10.37,2013-04-22 07:15:00,
2013-04-22 03:20:00,52.8,41.0,30.24,East,80,3.0,3.0,64,0.00,CLR,,0.00,WeatherDisplay:10.37,2013-04-22 07:20:00,
2013-04-22 03:25:00,52.8,41.0,30.24,NE,55,4.6,4.6,64,0.00,CLR,,0.00,WeatherDisplay:10.37,2013-04-22 07:25:00,
2013-04-22 03:30:00,52.8,41.0,30.24,ENE,61,3.5,3.5,64,0.00,CLR,,0.00,WeatherDisplay:10.37,2013-04-22 07:30:00,
2013-04-22 03:35:00,52.7,40.9,30.24,East,79,4.6,4.6,64,0.00,CLR,,0.00,WeatherDisplay:10.37,2013-04-22 07:35:00,
2013-04-22 03:40:00,52.7,40.9,30.24,ENE,65,3.5,3.5,64,0.00,CLR,,0.00,WeatherDisplay:10.37,2013-04-22 07:40:00,
2013-04-22 03:45:00,52.6,41.2,30.24,ENE,59,3.5,3.5,65,0.00,CLR,,0.00,WeatherDisplay:10.37,2013-04-22 07:45:00,
2013-04-22 03:50:00,52.4,41.4,30.23,ENE,72,2.3,2.3,66,0.00,CLR,,0.00,WeatherDisplay:10.37,2013-04-22 07:50:00,
2013-04-22 03:55:00,52.3,40.9,30.24,ENE,65,4.6,4.6,65,0.00,CLR,,0.00,WeatherDisplay:10.37,2013-04-22 07:55:00,
2013-04-22 04:00:00,52.2,41.2,30.24,ENE,76,3.5,3.5,66,0.00,CLR,,0.00,WeatherDisplay:10.37,2013-04-22 08:00:00,
2013-04-22 04:05:00,52.1,40.7,30.24,ENE,68,3.5,3.5,65,0.00,CLR,,0.00,WeatherDisplay:10.37,2013-04-22 08:05:00,
2013-04-22 04:10:00,51.9,40.9,30.24,ENE,78,2.3,2.3,66,0.00,CLR,,0.00,WeatherDisplay:10.37,2013-04-22 08:10:00,
2013-04-22 04:15:00,51.8,41.2,30.24,East,82,2.3,2.3,67,0.00,CLR,,0.00,WeatherDisplay:10.37,2013-04-22 08:15:00,
2013-04-22 04:20:00,51.7,41.1,30.24,ENE,66,3.5,3.5,67,0.00,CLR,,0.00,WeatherDisplay:10.37,2013-04-22 08:20:00,
2013-04-22 04:25:00,51.6,40.6,30.24,NE,55,3.5,3.5,66,0.00,CLR,,0.00,WeatherDisplay:10.37,2013-04-22 08:25:00,
2013-04-22 04:30:00,51.5,40.9,30.24,ENE,68,3.5,3.5,67,0.00,CLR,,0.00,WeatherDisplay:10.37,2013-04-22 08:30:00,
2013-04-22 04:35:00,51.4,40.4,30.24,ENE,65,3.5,3.5,66,0.00,CLR,,0.00,WeatherDisplay:10.37,2013-04-22 08:35:00,
2013-04-22 04:40:00,51.3,40.7,30.25,ENE,61,2.3,2.3,67,0.00,CLR,,0.00,WeatherDisplay:10.37,2013-04-22 08:40:00,
2013-04-22 04:45:00,51.2,41.0,30.25,ENE,70,3.5,3.5,68,0.00,CLR,,0.00,WeatherDisplay:10.37,2013-04-22 08:45:00,
2013-04-22 04:50:00,51.1,40.9,30.25,ENE,75,3.5,3.5,68,0.00,CLR,,0.00,WeatherDisplay:10.37,2013-04-22 08:50:00,
2013-04-22 04:55:00,51.0,41.2,30.25,ENE,67,1.2,1.2,69,0.00,CLR,,0.00,WeatherDisplay:10.37,2013-04-22 08:55:00,
2013-04-22 05:00:00,50.8,41.0,30.25,NE,48,3.5,3.5,69,0.00,CLR,,0.00,WeatherDisplay:10.37,2013-04-22 09:00:00,
2013-04-22 05:05:00,50.6,40.8,30.25,ENE,64,2.3,2.3,69,0.00,CLR,,0.00,WeatherDisplay:10.37,2013-04-22 09:05:00,
2013-04-22 05:10:00,50.6,41.2,30.25,ENE,64,2.3,2.3,70,0.00,CLR,,0.00,WeatherDisplay:10.37,2013-04-22 09:10:00,
2013-04-22 05:15:00,50.5,41.1,30.25,ENE,64,1.2,1.2,70,0.00,CLR,,0.00,WeatherDisplay:10.37,2013-04-22 09:15:00,
2013-04-22 05:20:00,50.4,41.3,30.26,ENE,78,2.3,2.3,71,0.00,CLR,,0.00,WeatherDisplay:10.37,2013-04-22 09:20:00,
2013-04-22 05:25:00,50.2,40.8,30.26,ENE,69,3.0,3.0,70,0.00,CLR,,0.00,WeatherDisplay:10.37,2013-04-22 09:25:00,
2013-04-22 05:30:00,50.1,41.1,30.26,ENE,76,1.2,1.2,71,0.00,CLR,,0.00,WeatherDisplay:10.37,2013-04-22 09:30:00,
2013-04-22 05:35:00,50.1,41.1,30.26,NE,49,3.5,3.5,71,0.00,CLR,,0.00,WeatherDisplay:10.37,2013-04-22 09:35:00,
2013-04-22 05:40:00,50.0,41.0,30.26,ENE,63,3.5,3.5,71,0.00,CLR,,0.00,WeatherDisplay:10.37,2013-04-22 09:40:00,
2013-04-22 05:45:00,49.9,41.2,30.26,NE,53,3.5,3.5,72,0.00,CLR,,0.00,WeatherDisplay:10.37,2013-04-22 09:45:00,
2013-04-22 05:50:00,49.7,41.0,30.26,NE,38,2.3,2.3,72,0.00,CLR,,0.00,WeatherDisplay:10.37,2013-04-22 09:50:00,
2013-04-22 05:55:00,49.6,40.9,30.27,NE,55,3.5,3.5,72,0.00,CLR,,0.00,WeatherDisplay:10.37,2013-04-22 09:55:00,
2013-04-22 06:00:00,49.5,40.8,30.27,East,80,3.5,3.5,72,0.00,CLR,,0.00,WeatherDisplay:10.37,2013-04-22 10:00:00,
2013-04-22 06:05:00,49.5,40.5,30.27,ENE,68,4.6,4.6,71,0.00,CLR,,0.00,WeatherDisplay:10.37,2013-04-22 10:05:00,
2013-04-22 06:10:00,49.5,40.5,30.27,ENE,71,5.0,5.0,71,0.00,CLR,,0.00,WeatherDisplay:10.37,2013-04-22 10:10:00,
2013-04-22 06:15:00,49.4,40.7,30.27,ENE,76,3.5,3.5,72,0.00,CLR,,0.00,WeatherDisplay:10.37,2013-04-22 10:15:00,
2013-04-22 06:20:00,49.4,40.4,30.27,ENE,67,4.6,4.6,71,0.00,CLR,,0.00,WeatherDisplay:10.37,2013-04-22 10:20:00,
2013-04-22 06:25:00,49.3,40.7,30.27,ENE,57,4.6,4.6,72,0.00,CLR,,0.00,WeatherDisplay:10.37,2013-04-22 10:25:00,
2013-04-22 06:30:00,49.2,40.6,30.27,NE,50,3.5,3.5,72,0.00,CLR,,0.00,WeatherDisplay:10.37,2013-04-22 10:30:00,
2013-04-22 06:35:00,49.2,40.6,30.27,East,83,3.5,3.5,72,0.00,CLR,,0.00,WeatherDisplay:10.37,2013-04-22 10:35:00,
2013-04-22 06:40:00,49.1,40.8,30.27,NE,51,3.5,3.5,73,0.00,CLR,,0.00,WeatherDisplay:10.37,2013-04-22 10:40:00,
2013-04-22 06:45:00,49.0,40.4,30.27,ENE,63,4.6,4.6,72,0.00,CLR,,0.00,WeatherDisplay:10.37,2013-04-22 10:45:00,
2013-04-22 06:50:00,49.1,40.5,30.27,ENE,69,3.5,3.5,72,0.00,CLR,,0.00,WeatherDisplay:10.37,2013-04-22 10:50:00,
2013-04-22 06:55:00,49.0,40.4,30.28,ENE,59,3.5,3.5,72,0.00,CLR,,0.00,WeatherDisplay:10.37,2013-04-22 10:55:00,
2013-04-22 07:00:00,49.0,40.4,30.28,ENE,63,3.5,3.5,72,0.00,CLR,,0.00,WeatherDisplay:10.37,2013-04-22 11:00:00,
2013-04-22 07:05:00,49.1,40.5,30.28,NE,51,3.5,3.5,72,0.00,CLR,,0.00,WeatherDisplay:10.37,2013-04-22 11:05:00,
2013-04-22 07:10:00,49.1,40.1,30.28,NE,47,3.5,3.5,71,0.00,CLR,,0.00,WeatherDisplay:10.37,2013-04-22 11:10:00,
2013-04-22 07:15:00,49.2,40.9,30.28,East,82,3.5,3.5,73,0.00,CLR,,0.00,WeatherDisplay:10.37,2013-04-22 11:15:00,
2013-04-22 07:20:00,49.2,40.2,30.29,ENE,74,3.5,3.5,71,0.00,CLR,,0.00,WeatherDisplay:10.37,2013-04-22 11:20:00,
2013-04-22 07:25:00,49.2,40.2,30.29,NE,56,3.5,3.5,71,0.00,CLR,,0.00,WeatherDisplay:10.37,2013-04-22 11:25:00,
2013-04-22 07:30:00,49.2,39.8,30.29,NE,39,4.0,4.0,70,0.00,CLR,,0.00,WeatherDisplay:10.37,2013-04-22 11:30:00,
2013-04-22 07:35:00,49.3,39.9,30.29,NNE,20,6.9,6.9,70,0.00,CLR,,0.00,WeatherDisplay:10.37,2013-04-22 11:35:00,
2013-04-22 07:40:00,49.3,39.6,30.29,ENE,59,4.6,4.6,69,0.00,CLR,,0.00,WeatherDisplay:10.37,2013-04-22 11:40:00,
2013-04-22 07:45:00,49.4,39.7,30.29,ENE,70,4.6,4.6,69,0.00,CLR,,0.00,WeatherDisplay:10.37,2013-04-22 11:45:00,
2013-04-22 07:50:00,49.5,39.4,30.29,East,85,3.5,3.5,68,0.00,CLR,,0.00,WeatherDisplay:10.37,2013-04-22 11:50:00,
2013-04-22 07:55:00,49.6,39.5,30.29,ENE,76,4.0,4.0,68,0.00,CLR,,0.00,WeatherDisplay:10.37,2013-04-22 11:55:00,
2013-04-22 08:00:00,49.6,38.3,30.28,East,81,3.5,3.5,65,0.00,CLR,,0.00,WeatherDisplay:10.37,2013-04-22 12:00:00,
2013-04-22 08:05:00,49.7,38.4,30.29,NE,42,5.0,5.0,65,0.00,CLR,,0.00,WeatherDisplay:10.37,2013-04-22 12:05:00,
2013-04-22 08:10:00,49.9,38.6,30.29,NE,51,6.9,6.9,65,0.00,CLR,,0.00,WeatherDisplay:10.37,2013-04-22 12:10:00,
2013-04-22 08:15:00,50.0,38.3,30.29,ENE,74,3.5,3.5,64,0.00,CLR,,0.00,WeatherDisplay:10.37,2013-04-22 12:15:00,
2013-04-22 08:20:00,50.3,38.2,30.29,ENE,69,3.5,3.5,63,0.00,CLR,,0.00,WeatherDisplay:10.37,2013-04-22 12:20:00,
2013-04-22 08:25:00,50.6,38.9,30.29,ENE,76,5.8,5.8,64,0.00,FEW,,0.00,WeatherDisplay:10.37,2013-04-22 12:25:00,
2013-04-22 08:30:00,50.9,39.1,30.29,NE,41,3.5,3.5,64,0.00,FEW,,0.00,WeatherDisplay:10.37,2013-04-22 12:30:00,
2013-04-22 08:35:00,51.2,38.6,30.29,East,82,5.0,5.0,62,0.00,FEW,,0.00,WeatherDisplay:10.37,2013-04-22 12:35:00,
2013-04-22 08:40:00,51.3,37.9,30.29,ESE,111,5.8,5.8,60,0.00,FEW,,0.00,WeatherDisplay:10.37,2013-04-22 12:40:00,
2013-04-22 08:45:00,51.4,38.0,30.29,East,84,6.9,6.9,60,0.00,FEW,,0.00,WeatherDisplay:10.37,2013-04-22 12:45:00,
2013-04-22 08:50:00,51.5,38.5,30.29,NE,39,6.0,6.0,61,0.00,FEW,,0.00,WeatherDisplay:10.37,2013-04-22 12:50:00,
2013-04-22 08:55:00,51.7,37.8,30.29,ENE,66,5.0,5.0,59,0.00,FEW,,0.00,WeatherDisplay:10.37,2013-04-22 12:55:00,
2013-04-22 09:00:00,51.9,38.0,30.29,ENE,65,5.0,5.0,59,0.00,FEW,,0.00,WeatherDisplay:10.37,2013-04-22 13:00:00,
2013-04-22 09:05:00,52.0,37.2,30.29,East,82,5.8,5.8,57,0.00,FEW,,0.00,WeatherDisplay:10.37,2013-04-22 13:05:00,
2013-04-22 09:10:00,52.2,37.4,30.29,NE,36,5.0,5.0,57,0.00,FEW,,0.00,WeatherDisplay:10.37,2013-04-22 13:10:00,
2013-04-22 09:15:00,52.4,38.0,30.29,NE,48,6.0,6.0,58,0.00,FEW,,0.00,WeatherDisplay:10.37,2013-04-22 13:15:00,
2013-04-22 09:20:00,52.6,37.3,30.29,NE,49,5.8,5.8,56,0.00,FEW,,0.00,WeatherDisplay:10.37,2013-04-22 13:20:00,
2013-04-22 09:25:00,52.7,37.9,30.29,ENE,66,3.5,3.5,57,0.00,FEW,,0.00,WeatherDisplay:10.37,2013-04-22 13:25:00,
2013-04-22 09:30:00,53.0,38.2,30.28,ENE,60,6.9,6.9,57,0.00,FEW,,0.00,WeatherDisplay:10.37,2013-04-22 13:30:00,
2013-04-22 09:35:00,53.1,38.3,30.28,NE,49,6.0,6.0,57,0.00,FEW,,0.00,WeatherDisplay:10.37,2013-04-22 13:35:00,
2013-04-22 09:40:00,53.2,38.4,30.28,ENE,66,8.1,8.1,57,0.00,FEW,,0.00,WeatherDisplay:10.37,2013-04-22 13:40:00,
2013-04-22 09:45:00,53.3,38.4,30.28,NE,53,5.8,5.8,57,0.00,FEW,,0.00,WeatherDisplay:10.37,2013-04-22 13:45:00,
2013-04-22 09:50:00,53.5,39.1,30.28,ENE,65,7.0,7.0,58,0.00,FEW,,0.00,WeatherDisplay:10.37,2013-04-22 13:50:00,
2013-04-22 09:55:00,53.9,39.5,30.28,NE,40,4.6,4.6,58,0.00,FEW,,0.00,WeatherDisplay:10.37,2013-04-22 13:55:00,
2013-04-22 10:00:00,54.1,38.7,30.28,NE,46,5.8,5.8,56,0.00,FEW,,0.00,WeatherDisplay:10.37,2013-04-22 14:00:00,
2013-04-22 10:05:00,54.4,39.5,30.28,ENE,61,6.9,6.9,57,0.00,FEW,,0.00,WeatherDisplay:10.37,2013-04-22 14:05:00,
2013-04-22 10:10:00,54.6,39.2,30.28,East,85,8.1,8.1,56,0.00,FEW,,0.00,WeatherDisplay:10.37,2013-04-22 14:10:00,
2013-04-22 10:15:00,54.6,39.2,30.28,ENE,75,6.9,6.9,56,0.00,CLR,,0.00,WeatherDisplay:10.37,2013-04-22 14:15:00,
2013-04-22 10:20:00,54.7,40.2,30.28,ENE,67,8.1,8.1,58,0.00,CLR,,0.00,WeatherDisplay:10.37,2013-04-22 14:20:00,
2013-04-22 10:25:00,54.8,39.4,30.28,ENE,59,3.5,3.5,56,0.00,CLR,,0.00,WeatherDisplay:10.37,2013-04-22 14:25:00,
2013-04-22 10:30:00,55.2,39.3,30.28,East,84,4.6,4.6,55,0.00,CLR,,0.00,WeatherDisplay:10.37,2013-04-22 14:30:00,
2013-04-22 10:35:00,55.4,39.0,30.28,NE,36,4.6,4.6,54,0.00,CLR,,0.00,WeatherDisplay:10.37,2013-04-22 14:35:00,
2013-04-22 10:40:00,55.6,40.1,30.28,NNE,28,6.0,6.0,56,0.00,CLR,,0.00,WeatherDisplay:10.37,2013-04-22 14:40:00,
2013-04-22 10:45:00,55.8,39.9,30.28,ENE,65,5.8,5.8,55,0.00,CLR,,0.00,WeatherDisplay:10.37,2013-04-22 14:45:00,
2013-04-22 10:50:00,55.9,40.4,30.28,East,80,5.8,5.8,56,0.00,CLR,,0.00,WeatherDisplay:10.37,2013-04-22 14:50:00,
2013-04-22 10:55:00,56.0,40.5,30.28,East,84,3.5,3.5,56,0.00,CLR,,0.00,WeatherDisplay:10.37,2013-04-22 14:55:00,
2013-04-22 11:00:00,56.5,40.0,30.29,East,80,4.6,4.6,54,0.00,CLR,,0.00,WeatherDisplay:10.37,2013-04-22 15:00:00,
2013-04-22 11:05:00,56.8,40.8,30.29,East,84,5.8,5.8,55,0.00,CLR,,0.00,WeatherDisplay:10.37,2013-04-22 15:05:00,
2013-04-22 11:10:00,56.7,40.2,30.28,NE,36,3.5,3.5,54,0.00,CLR,,0.00,WeatherDisplay:10.37,2013-04-22 15:10:00,
2013-04-22 11:15:00,56.9,40.9,30.28,ENE,67,6.9,6.9,55,0.00,FEW,,0.00,WeatherDisplay:10.37,2013-04-22 15:15:00,
2013-04-22 11:20:00,57.3,41.7,30.28,East,82,5.0,5.0,56,0.00,FEW,,0.00,WeatherDisplay:10.37,2013-04-22 15:20:00,
2013-04-22 11:25:00,57.7,41.6,30.28,East,80,3.5,3.5,55,0.00,FEW,,0.00,WeatherDisplay:10.37,2013-04-22 15:25:00,
2013-04-22 11:30:00,58.0,40.5,30.28,ENE,67,5.8,5.8,52,0.00,FEW,,0.00,WeatherDisplay:10.37,2013-04-22 15:30:00,
2013-04-22 11:35:00,57.9,40.4,30.28,NE,49,5.0,5.0,52,0.00,FEW,,0.00,WeatherDisplay:10.37,2013-04-22 15:35:00,
2013-04-22 11:40:00,58.0,41.0,30.28,ENE,58,5.8,5.8,53,0.00,FEW,,0.00,WeatherDisplay:10.37,2013-04-22 15:40:00,
2013-04-22 11:45:00,58.3,41.2,30.28,SSE,151,3.0,3.0,53,0.00,FEW,,0.00,WeatherDisplay:10.37,2013-04-22 15:45:00,
2013-04-22 11:50:00,58.7,40.6,30.27,East,88,6.9,6.9,51,0.00,FEW,,0.00,WeatherDisplay:10.37,2013-04-22 15:50:00,
2013-04-22 11:55:00,58.8,40.7,30.27,ENE,74,5.8,5.8,51,0.00,FEW,,0.00,WeatherDisplay:10.37,2013-04-22 15:55:00,
2013-04-22 12:00:00,59.0,40.4,30.27,NE,40,3.5,3.5,50,0.00,FEW,,0.00,WeatherDisplay:10.37,2013-04-22 16:00:00,
2013-04-22 12:05:00,59.2,41.6,30.27,East,80,4.6,4.6,52,0.00,FEW,,0.00,WeatherDisplay:10.37,2013-04-22 16:05:00,
2013-04-22 12:10:00,59.4,41.3,30.27,NE,55,3.5,3.5,51,0.00,FEW,,0.00,WeatherDisplay:10.37,2013-04-22 16:10:00,
2013-04-22 12:15:00,59.7,41.0,30.27,ENE,73,6.9,6.9,50,0.00,FEW,,0.00,WeatherDisplay:10.37,2013-04-22 16:15:00,
2013-04-22 12:20:00,59.7,41.0,30.26,NE,40,5.8,5.8,50,0.00,FEW,,0.00,WeatherDisplay:10.37,2013-04-22 16:20:00,
2013-04-22 12:25:00,59.8,40.6,30.26,ENE,67,4.0,4.0,49,0.00,FEW,,0.00,WeatherDisplay:10.37,2013-04-22 16:25:00,
2013-04-22 12:30:00,60.0,40.2,30.26,NE,42,5.0,5.0,48,0.00,FEW,,0.00,WeatherDisplay:10.37,2013-04-22 16:30:00,
2013-04-22 12:35:00,60.2,42.0,30.26,East,82,6.9,6.9,51,0.00,FEW,,0.00,WeatherDisplay:10.37,2013-04-22 16:35:00,
2013-04-22 12:40:00,60.7,41.9,30.25,South,191,4.6,4.6,50,0.00,FEW,,0.00,WeatherDisplay:10.37,2013-04-22 16:40:00,
2013-04-22 12:45:00,61.1,41.8,30.25,ENE,64,3.5,3.5,49,0.00,FEW,,0.00,WeatherDisplay:10.37,2013-04-22 16:45:00,
2013-04-22 12:50:00,61.6,41.7,30.25,ENE,73,8.1,8.1,48,0.00,FEW,,0.00,WeatherDisplay:10.37,2013-04-22 16:50:00,
2013-04-22 12:55:00,62.0,42.6,30.25,East,98,2.0,2.0,49,0.00,FEW,,0.00,WeatherDisplay:10.37,2013-04-22 16:55:00,
2013-04-22 13:00:00,62.4,41.3,30.25,ENE,59,4.6,4.6,46,0.00,FEW,,0.00,WeatherDisplay:10.37,2013-04-22 17:00:00,
2013-04-22 13:05:00,62.3,41.8,30.25,ENE,71,3.5,3.5,47,0.00,FEW,,0.00,WeatherDisplay:10.37,2013-04-22 17:05:00,
2013-04-22 13:10:00,62.4,41.9,30.25,NE,37,3.5,3.5,47,0.00,FEW,,0.00,WeatherDisplay:10.37,2013-04-22 17:10:00,
2013-04-22 13:15:00,63.0,42.4,30.24,NE,38,3.5,3.5,47,0.00,FEW,,0.00,WeatherDisplay:10.37,2013-04-22 17:15:00,
2013-04-22 13:20:00,63.3,42.2,30.24,NE,42,4.6,4.6,46,0.00,FEW,,0.00,WeatherDisplay:10.37,2013-04-22 17:20:00,
2013-04-22 13:25:00,63.8,42.6,30.24,NW,323,3.5,3.5,46,0.00,FEW,,0.00,WeatherDisplay:10.37,2013-04-22 17:25:00,
2013-04-22 13:30:00,64.4,43.7,30.23,ENE,69,3.5,3.5,47,0.00,FEW,,0.00,WeatherDisplay:10.37,2013-04-22 17:30:00,
2013-04-22 13:35:00,65.0,41.9,30.23,NE,53,4.0,4.0,43,0.00,FEW,,0.00,WeatherDisplay:10.37,2013-04-22 17:35:00,
2013-04-22 13:40:00,65.2,42.7,30.23,NE,49,3.5,3.5,44,0.00,FEW,,0.00,WeatherDisplay:10.37,2013-04-22 17:40:00,
2013-04-22 13:45:00,65.4,42.9,30.23,ENE,59,3.5,3.5,44,0.00,FEW,,0.00,WeatherDisplay:10.37,2013-04-22 17:45:00,
2013-04-22 13:50:00,65.7,43.2,30.23,ENE,65,4.6,4.6,44,0.00,FEW,,0.00,WeatherDisplay:10.37,2013-04-22 17:50:00,
2013-04-22 13:55:00,65.6,43.1,30.22,East,82,2.3,2.3,44,0.00,FEW,,0.00,WeatherDisplay:10.37,2013-04-22 17:55:00,
2013-04-22 14:00:00,65.8,43.9,30.22,NE,36,3.5,3.5,45,0.00,FEW,,0.00,WeatherDisplay:10.37,2013-04-22 18:00:00,
2013-04-22 14:05:00,65.9,43.9,30.22,NE,56,3.5,3.5,45,0.00,FEW,,0.00,WeatherDisplay:10.37,2013-04-22 18:05:00,
2013-04-22 14:10:00,65.8,43.3,30.22,NNE,29,4.6,4.6,44,0.00,FEW,,0.00,WeatherDisplay:10.37,2013-04-22 18:10:00,
2013-04-22 14:15:00,65.9,43.4,30.21,ENE,77,5.8,5.8,44,0.00,SCT,,0.00,WeatherDisplay:10.37,2013-04-22 18:15:00,
2013-04-22 14:20:00,65.7,43.8,30.21,NNE,32,2.3,2.3,45,0.00,SCT,,0.00,WeatherDisplay:10.37,2013-04-22 18:20:00,
2013-04-22 14:25:00,66.3,46.0,30.21,SSE,153,3.5,3.5,48,0.00,SCT,,0.00,WeatherDisplay:10.37,2013-04-22 18:25:00,
2013-04-22 14:30:00,66.6,47.4,30.21,ENE,59,2.3,2.3,50,0.00,SCT,,0.00,WeatherDisplay:10.37,2013-04-22 18:30:00,
2013-04-22 14:35:00,66.6,43.4,30.21,ENE,59,3.5,3.5,43,0.00,SCT,,0.00,WeatherDisplay:10.37,2013-04-22 18:35:00,
2013-04-22 14:40:00,66.4,43.8,30.21,ESE,105,3.5,3.5,44,0.00,SCT,,0.00,WeatherDisplay:10.37,2013-04-22 18:40:00,
2013-04-22 14:45:00,66.2,44.2,30.21,East,91,3.5,3.5,45,0.00,SCT,,0.00,WeatherDisplay:10.37,2013-04-22 18:45:00,
2013-04-22 14:50:00,66.0,44.0,30.20,SSE,162,1.2,1.2,45,0.00,SCT,,0.00,WeatherDisplay:10.37,2013-04-22 18:50:00,
2013-04-22 14:55:00,66.1,44.1,30.20,SE,128,3.5,3.5,45,0.00,SCT,,0.00,WeatherDisplay:10.37,2013-04-22 18:55:00,
2013-04-22 15:00:00,66.5,45.1,30.20,East,90,2.3,2.3,46,0.00,SCT,,0.00,WeatherDisplay:10.37,2013-04-22 19:00:00,
2013-04-22 15:05:00,66.7,44.7,30.19,SSE,166,3.5,3.5,45,0.00,SCT,,0.00,WeatherDisplay:10.37,2013-04-22 19:05:00,
2013-04-22 15:10:00,67.0,45.5,30.20,ENE,61,4.6,4.6,46,0.00,SCT,,0.00,WeatherDisplay:10.37,2013-04-22 19:10:00,
2013-04-22 15:15:00,67.1,44.4,30.19,SE,144,2.3,2.3,44,0.00,SCT,,0.00,WeatherDisplay:10.37,2013-04-22 19:15:00,
2013-04-22 15:20:00,67.1,45.0,30.19,NE,47,4.0,4.0,45,0.00,SCT,,0.00,WeatherDisplay:10.37,2013-04-22 19:20:00,
2013-04-22 15:25:00,66.9,45.4,30.18,ESE,107,3.5,3.5,46,0.00,SCT,,0.00,WeatherDisplay:10.37,2013-04-22 19:25:00,
2013-04-22 15:30:00,67.0,45.5,30.18,NE,53,3.5,3.5,46,0.00,SCT,,0.00,WeatherDisplay:10.37,2013-04-22 19:30:00,
2013-04-22 15:35:00,67.0,46.1,30.17,SSE,153,3.5,3.5,47,0.00,SCT,,0.00,WeatherDisplay:10.37,2013-04-22 19:35:00,
2013-04-22 15:40:00,67.1,45.6,30.17,ENE,63,5.8,5.8,46,0.00,SCT,,0.00,WeatherDisplay:10.37,2013-04-22 19:40:00,
2013-04-22 15:45:00,67.0,46.1,30.17,NE,46,3.5,3.5,47,0.00,SCT,,0.00,WeatherDisplay:10.37,2013-04-22 19:45:00,
2013-04-22 15:50:00,67.2,45.7,30.17,NNE,32,3.5,3.5,46,0.00,SCT,,0.00,WeatherDisplay:10.37,2013-04-22 19:50:00,
2013-04-22 15:55:00,67.2,46.3,30.17,SE,126,3.5,3.5,47,0.00,SCT,,0.00,WeatherDisplay:10.37,2013-04-22 19:55:00,
2013-04-22 16:00:00,67.5,47.1,30.16,NE,56,3.5,3.5,48,0.00,SCT,,0.00,WeatherDisplay:10.37,2013-04-22 20:00:00,
2013-04-22 16:05:00,67.7,46.7,30.16,NE,55,3.0,3.0,47,0.00,SCT,,0.00,WeatherDisplay:10.37,2013-04-22 20:05:00,
2013-04-22 16:10:00,67.7,45.6,30.16,NE,56,3.5,3.5,45,0.00,SCT,,0.00,WeatherDisplay:10.37,2013-04-22 20:10:00,
2013-04-22 16:15:00,67.6,45.5,30.15,ESE,113,3.5,3.5,45,0.00,BKN,,0.00,WeatherDisplay:10.37,2013-04-22 20:15:00,
2013-04-22 16:20:00,67.4,45.9,30.15,ENE,71,2.3,2.3,46,0.00,BKN,,0.00,WeatherDisplay:10.37,2013-04-22 20:20:00,
2013-04-22 16:25:00,67.5,46.6,30.15,ENE,61,1.2,1.2,47,0.00,BKN,,0.00,WeatherDisplay:10.37,2013-04-22 20:25:00,
2013-04-22 16:30:00,67.6,47.8,30.15,ENE,69,3.5,3.5,49,0.00,BKN,,0.00,WeatherDisplay:10.37,2013-04-22 20:30:00,
2013-04-22 16:35:00,67.4,47.0,30.14,East,90,2.3,2.3,48,0.00,BKN,,0.00,WeatherDisplay:10.37,2013-04-22 20:35:00,
2013-04-22 16:40:00,67.5,46.0,30.14,East,93,3.5,3.5,46,0.00,BKN,,0.00,WeatherDisplay:10.37,2013-04-22 20:40:00,
2013-04-22 16:45:00,67.5,47.1,30.14,SE,129,2.3,2.3,48,0.00,BKN,,0.00,WeatherDisplay:10.37,2013-04-22 20:45:00,
2013-04-22 16:50:00,67.5,46.0,30.13,East,94,2.3,2.3,46,0.00,BKN,,0.00,WeatherDisplay:10.37,2013-04-22 20:50:00,
2013-04-22 16:55:00,67.5,46.6,30.13,NE,55,2.3,2.3,47,0.00,BKN,,0.00,WeatherDisplay:10.37,2013-04-22 20:55:00,
2013-04-22 17:00:00,67.6,47.8,30.13,ENE,63,3.5,3.5,49,0.00,BKN,,0.00,WeatherDisplay:10.37,2013-04-22 21:00:00,
2013-04-22 17:05:00,67.4,45.9,30.13,ENE,57,3.5,3.5,46,0.00,BKN,,0.00,WeatherDisplay:10.37,2013-04-22 21:05:00,
2013-04-22 17:10:00,67.4,46.5,30.13,NNE,32,3.5,3.5,47,0.00,BKN,,0.00,WeatherDisplay:10.37,2013-04-22 21:10:00,
2013-04-22 17:15:00,67.4,46.5,30.13,ENE,69,2.3,2.3,47,0.00,SCT,,0.00,WeatherDisplay:10.37,2013-04-22 21:15:00,
2013-04-22 17:20:00,67.4,45.9,30.13,East,90,2.3,2.3,46,0.00,SCT,,0.00,WeatherDisplay:10.37,2013-04-22 21:20:00,
2013-04-22 17:25:00,67.4,47.0,30.12,NNW,346,3.5,3.5,48,0.00,SCT,,0.00,WeatherDisplay:10.37,2013-04-22 21:25:00,
2013-04-22 17:30:00,67.5,46.6,30.12,SSE,147,3.5,3.5,47,0.00,SCT,,0.00,WeatherDisplay:10.37,2013-04-22 21:30:00,
2013-04-22 17:35:00,67.6,46.6,30.12,South,177,2.3,2.3,47,0.00,SCT,,0.00,WeatherDisplay:10.37,2013-04-22 21:35:00,
2013-04-22 17:40:00,67.6,47.8,30.12,SE,126,2.3,2.3,49,0.00,SCT,,0.00,WeatherDisplay:10.37,2013-04-22 21:40:00,
2013-04-22 17:45:00,67.7,46.7,30.12,NE,49,2.3,2.3,47,0.00,SCT,,0.00,WeatherDisplay:10.37,2013-04-22 21:45:00,
2013-04-22 17:50:00,67.7,46.2,30.12,SE,144,3.5,3.5,46,0.00,SCT,,0.00,WeatherDisplay:10.37,2013-04-22 21:50:00,
2013-04-22 17:55:00,67.7,45.6,30.12,North,355,0.0,0.0,45,0.00,SCT,,0.00,WeatherDisplay:10.37,2013-04-22 21:55:00,
2013-04-22 18:00:00,67.6,45.5,30.13,South,172,2.3,2.3,45,0.00,SCT,,0.00,WeatherDisplay:10.37,2013-04-22 22:00:00,
2013-04-22 18:05:00,67.4,45.9,30.13,SSE,160,1.2,1.2,46,0.00,SCT,,0.00,WeatherDisplay:10.37,2013-04-22 22:05:00,
2013-04-22 18:10:00,67.2,47.4,30.13,ESE,107,0.0,0.0,49,0.00,SCT,,0.00,WeatherDisplay:10.37,2013-04-22 22:10:00,
2013-04-22 18:15:00,67.0,46.1,30.13,SE,128,1.0,1.0,47,0.00,FEW,,0.00,WeatherDisplay:10.37,2013-04-22 22:15:00,
2013-04-22 18:20:00,66.9,47.1,30.13,SE,129,1.0,1.0,49,0.00,FEW,,0.00,WeatherDisplay:10.37,2013-04-22 22:20:00,
2013-04-22 18:25:00,66.8,47.0,30.13,SE,130,1.0,1.0,49,0.00,FEW,,0.00,WeatherDisplay:10.37,2013-04-22 22:25:00,
2013-04-22 18:30:00,66.9,46.6,30.13,SE,128,1.2,1.2,48,0.00,FEW,,0.00,WeatherDisplay:10.37,2013-04-22 22:30:00,
2013-04-22 18:35:00,66.9,48.2,30.13,East,85,0.0,0.0,51,0.00,FEW,,0.00,WeatherDisplay:10.37,2013-04-22 22:35:00,
2013-04-22 18:40:00,67.0,46.7,30.13,ENE,57,3.0,3.0,48,0.00,FEW,,0.00,WeatherDisplay:10.37,2013-04-22 22:40:00,
2013-04-22 18:45:00,67.0,47.2,30.13,SSE,153,2.0,2.0,49,0.00,FEW,,0.00,WeatherDisplay:10.37,2013-04-22 22:45:00,
2013-04-22 18:50:00,66.9,46.6,30.13,East,90,1.2,1.2,48,0.00,FEW,,0.00,WeatherDisplay:10.37,2013-04-22 22:50:00,
2013-04-22 18:55:00,66.8,46.5,30.13,SE,144,2.3,2.3,48,0.00,FEW,,0.00,WeatherDisplay:10.37,2013-04-22 22:55:00,
2013-04-22 19:00:00,66.8,47.0,30.13,SE,144,0.0,0.0,49,0.00,FEW,,0.00,WeatherDisplay:10.37,2013-04-22 23:00:00,
2013-04-22 19:05:00,66.6,47.4,30.13,SE,142,1.2,1.2,50,0.00,FEW,,0.00,WeatherDisplay:10.37,2013-04-22 23:05:00,
2013-04-22 19:10:00,66.5,48.8,30.13,SE,142,1.2,1.2,53,0.00,FEW,,0.00,WeatherDisplay:10.37,2013-04-22 23:10:00,
2013-04-22 19:15:00,66.3,47.6,30.13,ENE,78,1.2,1.2,51,0.00,SCT,,0.00,WeatherDisplay:10.37,2013-04-22 23:15:00,
2013-04-22 19:20:00,66.0,46.8,30.13,ENE,78,1.2,1.2,50,0.00,SCT,,0.00,WeatherDisplay:10.37,2013-04-22 23:20:00,
2013-04-22 19:25:00,65.7,47.1,30.14,ENE,78,0.0,0.0,51,0.00,SCT,,0.00,WeatherDisplay:10.37,2013-04-22 23:25:00,
2013-04-22 19:30:00,65.4,47.3,30.13,ENE,78,1.2,1.2,52,0.00,SCT,,0.00,WeatherDisplay:10.37,2013-04-22 23:30:00,
2013-04-22 19:35:00,65.1,46.0,30.14,SE,138,2.0,2.0,50,0.00,SCT,,0.00,WeatherDisplay:10.37,2013-04-22 23:35:00,
2013-04-22 19:40:00,65.0,46.4,30.14,SE,138,0.0,0.0,51,0.00,SCT,,0.00,WeatherDisplay:10.37,2013-04-22 23:40:00,
2013-04-22 19:45:00,64.8,46.2,30.14,SE,138,0.0,0.0,51,0.00,SCT,,0.00,WeatherDisplay:10.37,2013-04-22 23:45:00,
2013-04-22 19:50:00,64.7,46.7,30.14,SE,138,0.0,0.0,52,0.00,SCT,,0.00,WeatherDisplay:10.37,2013-04-22 23:50:00,
2013-04-22 19:55:00,64.4,46.9,30.13,SE,138,0.0,0.0,53,0.00,SCT,,0.00,WeatherDisplay:10.37,2013-04-22 23:55:00,
2013-04-22 20:00:00,64.2,46.2,30.14,SE,137,0.0,0.0,52,0.00,SCT,,0.00,WeatherDisplay:10.37,2013-04-23 00:00:00,
2013-04-22 20:05:00,64.0,46.5,30.14,SE,138,0.0,0.0,53,0.00,SCT,,0.00,WeatherDisplay:10.37,2013-04-23 00:05:00,
2013-04-22 20:10:00,63.7,46.2,30.14,SE,138,0.0,0.0,53,0.00,SCT,,0.00,WeatherDisplay:10.37,2013-04-23 00:10:00,
2013-04-22 20:15:00,63.5,46.6,30.14,SE,138,0.0,0.0,54,0.00,SCT,,0.00,WeatherDisplay:10.37,2013-04-23 00:15:00,
2013-04-22 20:20:00,63.2,46.3,30.14,SE,137,0.0,0.0,54,0.00,SCT,,0.00,WeatherDisplay:10.37,2013-04-23 00:20:00,
2013-04-22 20:25:00,62.9,46.5,30.14,SE,137,0.0,0.0,55,0.00,SCT,,0.00,WeatherDisplay:10.37,2013-04-23 00:25:00,
2013-04-22 20:30:00,62.5,46.1,30.14,SE,137,0.0,0.2,55,0.00,SCT,,0.00,WeatherDisplay:10.37,2013-04-23 00:30:00,
2013-04-22 20:35:00,62.2,46.3,30.14,SE,138,0.0,0.0,56,0.00,SCT,,0.00,WeatherDisplay:10.37,2013-04-23 00:35:00,
2013-04-22 20:40:00,62.0,46.6,30.14,SE,137,0.0,0.0,57,0.00,SCT,,0.00,WeatherDisplay:10.37,2013-04-23 00:40:00,
2013-04-22 20:45:00,61.8,46.9,30.14,SE,137,0.0,0.0,58,0.00,SCT,,0.00,WeatherDisplay:10.37,2013-04-23 00:45:00,
2013-04-22 20:50:00,61.5,46.6,30.14,SE,137,0.0,0.0,58,0.00,SCT,,0.00,WeatherDisplay:10.37,2013-04-23 00:50:00,
2013-04-22 20:55:00,61.3,46.8,30.14,SE,137,0.0,0.0,59,0.00,SCT,,0.00,WeatherDisplay:10.37,2013-04-23 00:55:00,
2013-04-22 21:00:00,61.1,46.7,30.14,SE,137,0.0,0.0,59,0.00,SCT,,0.00,WeatherDisplay:10.37,2013-04-23 01:00:00,
2013-04-22 21:05:00,60.9,46.5,30.14,SE,137,0.0,0.0,59,0.00,SCT,,0.00,WeatherDisplay:10.37,2013-04-23 01:05:00,
2013-04-22 21:10:00,60.7,46.7,30.14,SE,137,0.0,0.0,60,0.00,SCT,,0.00,WeatherDisplay:10.37,2013-04-23 01:10:00,
2013-04-22 21:15:00,60.5,46.5,30.15,SE,137,0.0,0.0,60,0.00,FEW,,0.00,WeatherDisplay:10.37,2013-04-23 01:15:00,
2013-04-22 21:20:00,60.4,46.4,30.15,SE,137,0.0,0.0,60,0.00,FEW,,0.00,WeatherDisplay:10.37,2013-04-23 01:20:00,
2013-04-22 21:25:00,60.3,46.4,30.15,SE,146,0.0,0.0,60,0.00,FEW,,0.00,WeatherDisplay:10.37,2013-04-23 01:25:00,
2013-04-22 21:30:00,60.2,46.3,30.15,SE,146,0.0,0.0,60,0.00,FEW,,0.00,WeatherDisplay:10.37,2013-04-23 01:30:00,
2013-04-22 21:35:00,60.0,46.5,30.15,SE,146,0.0,0.0,61,0.00,FEW,,0.00,WeatherDisplay:10.37,2013-04-23 01:35:00,
2013-04-22 21:40:00,59.8,48.0,30.16,SE,146,0.0,0.0,65,0.00,FEW,,0.00,WeatherDisplay:10.37,2013-04-23 01:40:00,
2013-04-22 21:45:00,59.7,47.9,30.16,SE,146,0.0,0.0,65,0.00,FEW,,0.00,WeatherDisplay:10.37,2013-04-23 01:45:00,
2013-04-22 21:50:00,59.6,48.6,30.16,SE,146,0.0,0.0,67,0.00,FEW,,0.00,WeatherDisplay:10.37,2013-04-23 01:50:00,
2013-04-22 21:55:00,59.3,47.5,30.16,SE,146,0.0,0.0,65,0.00,FEW,,0.00,WeatherDisplay:10.37,2013-04-23 01:55:00,
2013-04-22 22:00:00,59.1,46.9,30.17,SE,146,0.0,0.0,64,0.00,FEW,,0.00,WeatherDisplay:10.37,2013-04-23 02:00:00,
2013-04-22 22:05:00,58.8,46.6,30.17,SE,146,0.0,0.0,64,0.00,FEW,,0.00,WeatherDisplay:10.37,2013-04-23 02:05:00,
2013-04-22 22:10:00,58.6,46.5,30.17,SE,142,1.2,1.2,64,0.00,FEW,,0.00,WeatherDisplay:10.37,2013-04-23 02:10:00,
2013-04-22 22:15:00,58.4,46.3,30.17,ESE,112,0.0,0.1,64,0.00,FEW,,0.00,WeatherDisplay:10.37,2013-04-23 02:15:00,
2013-04-22 22:20:00,58.2,46.1,30.17,ESE,109,0.0,0.0,64,0.00,FEW,,0.00,WeatherDisplay:10.37,2013-04-23 02:20:00,
2013-04-22 22:25:00,58.1,46.0,30.17,East,90,0.0,0.0,64,0.00,FEW,,0.00,WeatherDisplay:10.37,2013-04-23 02:25:00,
2013-04-22 22:30:00,58.0,45.9,30.17,East,90,0.0,0.0,64,0.00,FEW,,0.00,WeatherDisplay:10.37,2013-04-23 02:30:00,
2013-04-22 22:35:00,57.9,45.8,30.17,East,90,1.2,1.2,64,0.00,FEW,,0.00,WeatherDisplay:10.37,2013-04-23 02:35:00,
2013-04-22 22:40:00,57.7,46.0,30.17,East,90,1.2,1.2,65,0.00,FEW,,0.00,WeatherDisplay:10.37,2013-04-23 02:40:00,
2013-04-22 22:45:00,57.6,45.1,30.18,East,90,1.2,1.2,63,0.00,FEW,,0.00,WeatherDisplay:10.37,2013-04-23 02:45:00,
2013-04-22 22:50:00,57.6,45.5,30.18,East,82,1.2,1.2,64,0.00,FEW,,0.00,WeatherDisplay:10.37,2013-04-23 02:50:00,
2013-04-22 22:55:00,57.5,46.6,30.18,East,82,1.2,0.0,67,0.00,FEW,,0.00,WeatherDisplay:10.37,2013-04-23 02:55:00,
2013-04-22 23:00:00,57.4,45.7,30.18,East,81,1.2,1.2,65,0.00,FEW,,0.00,WeatherDisplay:10.37,2013-04-23 03:00:00,
2013-04-22 23:05:00,57.1,45.4,30.18,ENE,78,1.2,1.2,65,0.00,FEW,,0.00,WeatherDisplay:10.37,2013-04-23 03:05:00,
2013-04-22 23:10:00,57.0,45.7,30.18,ENE,74,2.3,2.3,66,0.00,FEW,,0.00,WeatherDisplay:10.37,2013-04-23 03:10:00,
2013-04-22 23:15:00,56.8,45.2,30.18,ENE,74,1.2,0.0,65,0.00,CLR,,0.00,WeatherDisplay:10.37,2013-04-23 03:15:00,
2013-04-22 23:20:00,56.8,45.2,30.18,ENE,61,2.3,0.0,65,0.00,CLR,,0.00,WeatherDisplay:10.37,2013-04-23 03:20:00,
2013-04-22 23:25:00,56.7,43.4,30.17,East,86,2.3,2.3,61,0.00,CLR,,0.00,WeatherDisplay:10.37,2013-04-23 03:25:00,
2013-04-22 23:30:00,56.8,44.3,30.17,ENE,73,2.3,2.3,63,0.00,CLR,,0.00,WeatherDisplay:10.37,2013-04-23 03:30:00,
2013-04-22 23:35:00,56.7,44.2,30.18,ENE,71,1.2,1.2,63,0.00,CLR,,0.00,WeatherDisplay:10.37,2013-04-23 03:35:00,
2013-04-22 23:40:00,56.6,43.7,30.18,ENE,71,2.0,2.0,62,0.00,CLR,,0.00,WeatherDisplay:10.37,2013-04-23 03:40:00,
2013-04-22 23:45:00,56.5,44.0,30.18,ENE,67,2.0,2.0,63,0.00,CLR,,0.00,WeatherDisplay:10.37,2013-04-23 03:45:00,
2013-04-22 23:50:00,56.4,42.7,30.18,ENE,69,1.2,1.2,60,0.00,CLR,,0.00,WeatherDisplay:10.37,2013-04-23 03:50:00,
2013-04-22 23:55:00,56.4,43.1,30.18,ENE,61,1.2,1.2,61,0.00,CLR,,0.00,WeatherDisplay:10.37,2013-04-23 03:55:00,